Location: Campillo
(40.8621°N, 4.2488°W)
Time: 11:28:07
(UTC+00:00)

COSMOS 2406 - Pass Details

Date: 11 May 2021
Orbit: 845 x 862 km, 71.0° (Epoch: 14 June)

Event Time Altitude Azimuth Distance (km) Brightness Sun altitude
Rises 21:42:56 0° 335° (NNW) 3,412 7.7 -21.5°
Reaches altitude 10° 21:45:23 10° 335° (NNW) 2,474 6.7 -21.8°
Maximum altitude 21:51:04 84° 248° (WSW) 856 3.1 -22.4°
Enters shadow 21:52:42 49° 166° (SSE) 1,086 3.3 -22.6°
